Year,Month,Day,Hour,Minute,Value (Times are PST for insolation in W/m^2)
2022,10,19,00,00,46.20
2022,10,19,00,01,44.10
2022,10,19,00,02,44.00
2022,10,19,00,03,44.00
2022,10,19,00,04,45.00
2022,10,19,00,05,44.80
2022,10,19,00,06,44.00
2022,10,19,00,07,44.00
2022,10,19,00,08,42.40
2022,10,19,00,09,45.60
2022,10,19,00,10,44.00
2022,10,19,00,11,44.00
2022,10,19,00,12,44.00
2022,10,19,00,13,44.00
2022,10,19,00,14,40.60
2022,10,19,00,15,40.20
2022,10,19,00,16,42.40
2022,10,19,00,17,44.00
2022,10,19,00,18,44.00
2022,10,19,00,19,41.60
2022,10,19,00,20,41.50
2022,10,19,00,21,42.00
2022,10,19,00,22,41.80
2022,10,19,00,23,40.40
2022,10,19,00,24,42.00
2022,10,19,00,25,45.20
2022,10,19,00,26,44.90
2022,10,19,00,27,42.00
2022,10,19,00,28,43.70
2022,10,19,00,29,44.00
2022,10,19,00,30,43.60
2022,10,19,00,31,42.70
2022,10,19,00,32,43.10
2022,10,19,00,33,42.00
2022,10,19,00,34,42.00
2022,10,19,00,35,45.30
2022,10,19,00,36,42.30
2022,10,19,00,37,43.60
2022,10,19,00,38,43.50
2022,10,19,00,39,46.00
2022,10,19,00,40,44.80
2022,10,19,00,41,42.50
2022,10,19,00,42,42.00
2022,10,19,00,43,41.80
2022,10,19,00,44,40.90
2022,10,19,00,45,43.30
2022,10,19,00,46,42.00
2022,10,19,00,47,42.00
2022,10,19,00,48,42.00
2022,10,19,00,49,42.00
2022,10,19,00,50,42.00
2022,10,19,00,51,42.00
2022,10,19,00,52,42.70
2022,10,19,00,53,44.00
2022,10,19,00,54,42.80
2022,10,19,00,55,42.00
2022,10,19,00,56,42.00
2022,10,19,00,57,43.80
2022,10,19,00,58,42.40
2022,10,19,00,59,42.70
2022,10,19,01,00,40.90
2022,10,19,01,01,43.30
2022,10,19,01,02,42.60
2022,10,19,01,03,43.60
2022,10,19,01,04,43.90
2022,10,19,01,05,42.40
2022,10,19,01,06,44.70
2022,10,19,01,07,45.10
2022,10,19,01,08,42.80
2022,10,19,01,09,43.40
2022,10,19,01,10,40.60
2022,10,19,01,11,41.90
2022,10,19,01,12,42.40
2022,10,19,01,13,44.00
2022,10,19,01,14,44.00
2022,10,19,01,15,44.00
2022,10,19,01,16,44.00
2022,10,19,01,17,42.30
2022,10,19,01,18,42.20
2022,10,19,01,19,44.00
2022,10,19,01,20,44.00
2022,10,19,01,21,43.00
2022,10,19,01,22,42.00
2022,10,19,01,23,42.00
2022,10,19,01,24,42.00
2022,10,19,01,25,43.80
2022,10,19,01,26,42.90
2022,10,19,01,27,44.50
2022,10,19,01,28,43.00
2022,10,19,01,29,45.20
2022,10,19,01,30,46.00
2022,10,19,01,31,42.60
2022,10,19,01,32,44.20
2022,10,19,01,33,49.80
2022,10,19,01,34,54.10
2022,10,19,01,35,44.00
2022,10,19,01,36,45.80
2022,10,19,01,37,47.00
2022,10,19,01,38,47.00
2022,10,19,01,39,46.00
2022,10,19,01,40,46.00
2022,10,19,01,41,46.40
2022,10,19,01,42,47.00
2022,10,19,01,43,46.40
2022,10,19,01,44,46.70
2022,10,19,01,45,47.00
2022,10,19,01,46,46.90
2022,10,19,01,47,46.60
2022,10,19,01,48,47.90
2022,10,19,01,49,47.40
2022,10,19,01,50,47.80
2022,10,19,01,51,47.00
2022,10,19,01,52,47.00
2022,10,19,01,53,44.20
2022,10,19,01,54,47.00
2022,10,19,01,55,47.00
2022,10,19,01,56,47.00
2022,10,19,01,57,46.40
2022,10,19,01,58,46.70
2022,10,19,01,59,48.70
2022,10,19,02,00,47.10
2022,10,19,02,01,46.40
2022,10,19,02,02,44.70
2022,10,19,02,03,46.00
2022,10,19,02,04,46.60
2022,10,19,02,05,46.30
2022,10,19,02,06,44.30
2022,10,19,02,07,46.80
2022,10,19,02,08,45.60
2022,10,19,02,09,45.00
2022,10,19,02,10,46.50
2022,10,19,02,11,46.60
2022,10,19,02,12,46.30
2022,10,19,02,13,55.90
2022,10,19,02,14,41.10
2022,10,19,02,15,46.20
2022,10,19,02,16,46.70
2022,10,19,02,17,45.10
2022,10,19,02,18,45.20
2022,10,19,02,19,46.00
2022,10,19,02,20,46.00
2022,10,19,02,21,46.00
2022,10,19,02,22,46.00
2022,10,19,02,23,45.30
2022,10,19,02,24,44.00
2022,10,19,02,25,45.20
2022,10,19,02,26,46.00
2022,10,19,02,27,46.00
2022,10,19,02,28,44.10
2022,10,19,02,29,44.00
2022,10,19,02,30,44.70
2022,10,19,02,31,46.00
2022,10,19,02,32,44.80
2022,10,19,02,33,47.60
2022,10,19,02,34,46.40
2022,10,19,02,35,45.80
2022,10,19,02,36,43.60
2022,10,19,02,37,42.00
2022,10,19,02,38,42.00
2022,10,19,02,39,42.00
2022,10,19,02,40,39.90
2022,10,19,02,41,41.60
2022,10,19,02,42,43.70
2022,10,19,02,43,42.40
2022,10,19,02,44,43.30
2022,10,19,02,45,42.90
2022,10,19,02,46,45.20
2022,10,19,02,47,46.00
2022,10,19,02,48,42.60
2022,10,19,02,49,43.80
2022,10,19,02,50,42.40
2022,10,19,02,51,44.70
2022,10,19,02,52,46.40
2022,10,19,02,53,47.00
2022,10,19,02,54,44.80
2022,10,19,02,55,45.70
2022,10,19,02,56,46.60
2022,10,19,02,57,44.00
2022,10,19,02,58,44.00
2022,10,19,02,59,44.00
2022,10,19,03,00,42.80
2022,10,19,03,01,43.40
2022,10,19,03,02,45.60
2022,10,19,03,03,44.20
2022,10,19,03,04,46.00
2022,10,19,03,05,46.00
2022,10,19,03,06,46.50
2022,10,19,03,07,47.00
2022,10,19,03,08,46.30
2022,10,19,03,09,46.90
2022,10,19,03,10,46.80
2022,10,19,03,11,44.00
2022,10,19,03,12,45.10
2022,10,19,03,13,46.50
2022,10,19,03,14,46.00
2022,10,19,03,15,46.00
2022,10,19,03,16,44.40
2022,10,19,03,17,46.00
2022,10,19,03,18,46.20
2022,10,19,03,19,46.60
2022,10,19,03,20,46.50
2022,10,19,03,21,46.40
2022,10,19,03,22,44.60
2022,10,19,03,23,45.70
2022,10,19,03,24,46.90
2022,10,19,03,25,46.00
2022,10,19,03,26,44.60
2022,10,19,03,27,43.90
2022,10,19,03,28,43.60
2022,10,19,03,29,44.90
2022,10,19,03,30,46.00
2022,10,19,03,31,46.90
2022,10,19,03,32,46.00
2022,10,19,03,33,45.30
2022,10,19,03,34,44.90
2022,10,19,03,35,46.60
2022,10,19,03,36,46.30
2022,10,19,03,37,46.00
2022,10,19,03,38,44.30
2022,10,19,03,39,47.00
2022,10,19,03,40,47.00
2022,10,19,03,41,46.50
2022,10,19,03,42,44.80
2022,10,19,03,43,46.10
2022,10,19,03,44,47.00
2022,10,19,03,45,46.10
2022,10,19,03,46,47.00
2022,10,19,03,47,47.70
2022,10,19,03,48,49.00
2022,10,19,03,49,47.90
2022,10,19,03,50,50.00
2022,10,19,03,51,51.00
2022,10,19,03,52,50.90
2022,10,19,03,53,48.60
2022,10,19,03,54,45.90
2022,10,19,03,55,45.00
2022,10,19,03,56,46.00
2022,10,19,03,57,46.70
2022,10,19,03,58,48.70
2022,10,19,03,59,47.10
2022,10,19,04,00,46.80
2022,10,19,04,01,46.30
2022,10,19,04,02,46.50
2022,10,19,04,03,46.60
2022,10,19,04,04,48.50
2022,10,19,04,05,49.00
2022,10,19,04,06,49.00
2022,10,19,04,07,49.00
2022,10,19,04,08,49.00
2022,10,19,04,09,48.10
2022,10,19,04,10,46.40
2022,10,19,04,11,46.70
2022,10,19,04,12,48.60
2022,10,19,04,13,46.40
2022,10,19,04,14,48.60
2022,10,19,04,15,46.70
2022,10,19,04,16,46.50
2022,10,19,04,17,47.00
2022,10,19,04,18,46.30
2022,10,19,04,19,46.90
2022,10,19,04,20,46.90
2022,10,19,04,21,46.20
2022,10,19,04,22,47.00
2022,10,19,04,23,47.00
2022,10,19,04,24,46.40
2022,10,19,04,25,48.10
2022,10,19,04,26,46.50
2022,10,19,04,27,46.10
2022,10,19,04,28,47.00
2022,10,19,04,29,47.00
2022,10,19,04,30,46.60
2022,10,19,04,31,44.80
2022,10,19,04,32,46.20
2022,10,19,04,33,47.00
2022,10,19,04,34,47.10
2022,10,19,04,35,47.50
2022,10,19,04,36,42.00
2022,10,19,04,37,43.00
2022,10,19,04,38,42.80
2022,10,19,04,39,43.40
2022,10,19,04,40,44.00
2022,10,19,04,41,43.80
2022,10,19,04,42,42.00
2022,10,19,04,43,42.00
2022,10,19,04,44,42.00
2022,10,19,04,45,42.00
2022,10,19,04,46,42.00
2022,10,19,04,47,42.00
2022,10,19,04,48,42.20
2022,10,19,04,49,44.40
2022,10,19,04,50,46.40
2022,10,19,04,51,43.60
2022,10,19,04,52,41.20
2022,10,19,04,53,43.40
2022,10,19,04,54,42.30
2022,10,19,04,55,44.10
2022,10,19,04,56,45.60
2022,10,19,04,57,44.00
2022,10,19,04,58,42.10
2022,10,19,04,59,40.00
2022,10,19,05,00,41.40
2022,10,19,05,01,43.70
2022,10,19,05,02,43.90
2022,10,19,05,03,42.00
2022,10,19,05,04,42.60
2022,10,19,05,05,44.00
2022,10,19,05,06,42.80
2022,10,19,05,07,43.40
2022,10,19,05,08,44.00
2022,10,19,05,09,44.00
2022,10,19,05,10,44.00
2022,10,19,05,11,44.00
2022,10,19,05,12,44.90
2022,10,19,05,13,43.60
2022,10,19,05,14,42.00
2022,10,19,05,15,42.00
2022,10,19,05,16,42.20
2022,10,19,05,17,44.00
2022,10,19,05,18,44.00
2022,10,19,05,19,44.00
2022,10,19,05,20,44.00
2022,10,19,05,21,44.00
2022,10,19,05,22,44.00
2022,10,19,05,23,44.00
2022,10,19,05,24,44.00
2022,10,19,05,25,44.00
2022,10,19,05,26,44.00
2022,10,19,05,27,45.20
2022,10,19,05,28,44.60
2022,10,19,05,29,44.00
2022,10,19,05,30,45.90
2022,10,19,05,31,46.00
2022,10,19,05,32,45.30
2022,10,19,05,33,44.90
2022,10,19,05,34,46.00
2022,10,19,05,35,44.60
2022,10,19,05,36,44.00
2022,10,19,05,37,44.10
2022,10,19,05,38,46.00
2022,10,19,05,39,46.00
2022,10,19,05,40,44.20
2022,10,19,05,41,43.10
2022,10,19,05,42,42.60
2022,10,19,05,43,42.00
2022,10,19,05,44,42.10
2022,10,19,05,45,44.00
2022,10,19,05,46,44.70
2022,10,19,05,47,46.00
2022,10,19,05,48,43.60
2022,10,19,05,49,42.00
2022,10,19,05,50,43.70
2022,10,19,05,51,44.20
2022,10,19,05,52,46.00
2022,10,19,05,53,46.00
2022,10,19,05,54,46.50
2022,10,19,05,55,46.40
2022,10,19,05,56,46.00
2022,10,19,05,57,44.40
2022,10,19,05,58,44.00
2022,10,19,05,59,44.00
2022,10,19,06,00,44.00
2022,10,19,06,01,44.00
2022,10,19,06,02,42.80
2022,10,19,06,03,43.40
2022,10,19,06,04,44.00
2022,10,19,06,05,43.80
2022,10,19,06,06,42.40
2022,10,19,06,07,43.30
2022,10,19,06,08,42.00
2022,10,19,06,09,42.00
2022,10,19,06,10,42.00
2022,10,19,06,11,40.40
2022,10,19,06,12,41.70
2022,10,19,06,13,40.40
2022,10,19,06,14,42.00
2022,10,19,06,15,41.00
2022,10,19,06,16,41.20
2022,10,19,06,17,42.00
2022,10,19,06,18,42.00
2022,10,19,06,19,39.30
2022,10,19,06,20,41.40
2022,10,19,06,21,40.00
2022,10,19,06,22,42.00
2022,10,19,06,23,42.00
2022,10,19,06,24,42.00
2022,10,19,06,25,42.00
2022,10,19,06,26,43.90
2022,10,19,06,27,44.00
2022,10,19,06,28,44.00
2022,10,19,06,29,44.00
2022,10,19,06,30,45.20
2022,10,19,06,31,44.60
2022,10,19,06,32,44.00
2022,10,19,06,33,45.80
2022,10,19,06,34,44.40
2022,10,19,06,35,46.00
2022,10,19,06,36,46.00
2022,10,19,06,37,46.00
2022,10,19,06,38,46.70
2022,10,19,06,39,46.10
2022,10,19,06,40,46.00
2022,10,19,06,41,46.00
2022,10,19,06,42,46.00
2022,10,19,06,43,46.00
2022,10,19,06,44,46.00
2022,10,19,06,45,46.00
2022,10,19,06,46,46.00
2022,10,19,06,47,46.00
2022,10,19,06,48,46.20
2022,10,19,06,49,47.00
2022,10,19,06,50,47.00
2022,10,19,06,51,46.40
2022,10,19,06,52,46.70
2022,10,19,06,53,47.00
2022,10,19,06,54,47.00
2022,10,19,06,55,47.00
2022,10,19,06,56,47.70
2022,10,19,06,57,49.00
2022,10,19,06,58,49.00
2022,10,19,06,59,49.00
2022,10,19,07,00,56.70
2022,10,19,07,01,49.30
2022,10,19,07,02,50.90
2022,10,19,07,03,53.90
2022,10,19,07,04,51.30
2022,10,19,07,05,50.10
2022,10,19,07,06,56.00
2022,10,19,07,07,50.60
2022,10,19,07,08,61.40
2022,10,19,07,09,54.10
2022,10,19,07,10,54.80
2022,10,19,07,11,54.30
2022,10,19,07,12,53.50
2022,10,19,07,13,56.90
2022,10,19,07,14,48.90
2022,10,19,07,15,56.90
2022,10,19,07,16,50.50
2022,10,19,07,17,54.90
2022,10,19,07,18,54.40
2022,10,19,07,19,54.80
2022,10,19,07,20,56.80
2022,10,19,07,21,52.20
2022,10,19,07,22,55.70
2022,10,19,07,23,57.20
2022,10,19,07,24,63.00
2022,10,19,07,25,59.80
2022,10,19,07,26,60.50
2022,10,19,07,27,64.70
2022,10,19,07,28,56.20
2022,10,19,07,29,63.60
2022,10,19,07,30,54.40
2022,10,19,07,31,52.70
2022,10,19,07,32,56.80
2022,10,19,07,33,57.10
2022,10,19,07,34,55.80
2022,10,19,07,35,61.40
2022,10,19,07,36,50.00
2022,10,19,07,37,60.90
2022,10,19,07,38,51.70
2022,10,19,07,39,51.20
2022,10,19,07,40,54.00
2022,10,19,07,41,54.00
2022,10,19,07,42,55.60
2022,10,19,07,43,49.40
2022,10,19,07,44,51.40
2022,10,19,07,45,53.30
2022,10,19,07,46,54.90
2022,10,19,07,47,54.20
2022,10,19,07,48,53.00
2022,10,19,07,49,53.00
2022,10,19,07,50,57.60
2022,10,19,07,51,54.90
2022,10,19,07,52,59.40
2022,10,19,07,53,56.70
2022,10,19,07,54,52.80
2022,10,19,07,55,53.30
2022,10,19,07,56,57.30
2022,10,19,07,57,55.90
2022,10,19,07,58,53.00
2022,10,19,07,59,54.00
2022,10,19,08,00,54.60
2022,10,19,08,01,53.60
2022,10,19,08,02,58.20
2022,10,19,08,03,58.40
2022,10,19,08,04,58.00
2022,10,19,08,05,58.90
2022,10,19,08,06,61.30
2022,10,19,08,07,64.20
2022,10,19,08,08,69.60
2022,10,19,08,09,67.90
2022,10,19,08,10,65.40
2022,10,19,08,11,68.90
2022,10,19,08,12,71.70
2022,10,19,08,13,78.30
2022,10,19,08,14,78.00
2022,10,19,08,15,80.20
2022,10,19,08,16,81.00
2022,10,19,08,17,79.30
2022,10,19,08,18,76.30
2022,10,19,08,19,70.00
2022,10,19,08,20,69.60
2022,10,19,08,21,69.50
2022,10,19,08,22,70.00
2022,10,19,08,23,71.40
2022,10,19,08,24,75.40
2022,10,19,08,25,77.00
2022,10,19,08,26,76.40
2022,10,19,08,27,75.00
2022,10,19,08,28,80.20
2022,10,19,08,29,83.40
2022,10,19,08,30,83.70
2022,10,19,08,31,87.40
2022,10,19,08,32,93.20
2022,10,19,08,33,97.80
2022,10,19,08,34,96.30
2022,10,19,08,35,96.40
2022,10,19,08,36,101.60
2022,10,19,08,37,107.60
2022,10,19,08,38,122.60
2022,10,19,08,39,118.40
2022,10,19,08,40,121.10
2022,10,19,08,41,126.00
2022,10,19,08,42,128.00
2022,10,19,08,43,132.20
2022,10,19,08,44,138.00
2022,10,19,08,45,147.50
2022,10,19,08,46,144.20
2022,10,19,08,47,161.10
2022,10,19,08,48,165.60
2022,10,19,08,49,163.90
2022,10,19,08,50,172.80
2022,10,19,08,51,181.00
2022,10,19,08,52,181.00
2022,10,19,08,53,187.70
2022,10,19,08,54,183.40
2022,10,19,08,55,178.40
2022,10,19,08,56,184.30
2022,10,19,08,57,195.50
2022,10,19,08,58,218.30
2022,10,19,08,59,202.90
2022,10,19,09,00,203.60
2022,10,19,09,01,218.00
2022,10,19,09,02,218.00
2022,10,19,09,03,218.00
2022,10,19,09,04,1137.70
2022,10,19,09,05,1770.00
2022,10,19,09,06,1770.00
2022,10,19,09,07,1770.00
2022,10,19,09,08,1770.00
2022,10,19,09,09,1770.00
2022,10,19,09,10,1769.10
2022,10,19,09,11,1769.20
2022,10,19,09,12,1770.00
2022,10,19,09,13,1770.00
2022,10,19,09,14,1768.10
2022,10,19,09,15,1768.00
2022,10,19,09,16,1768.70
2022,10,19,09,17,1770.00
2022,10,19,09,18,1770.00
2022,10,19,09,19,1770.00
2022,10,19,09,20,1770.00
2022,10,19,09,21,1768.30
2022,10,19,09,22,1770.00
2022,10,19,09,23,1770.00
2022,10,19,09,24,1770.00
2022,10,19,09,25,1770.00
2022,10,19,09,26,1770.00
2022,10,19,09,27,1770.00
2022,10,19,09,28,1770.00
2022,10,19,09,29,1770.00
2022,10,19,09,30,1770.00
2022,10,19,09,31,1770.00
2022,10,19,09,32,1770.00
2022,10,19,09,33,1770.00
2022,10,19,09,34,1770.00
2022,10,19,09,35,1769.80
2022,10,19,09,36,1768.00
2022,10,19,09,37,1768.00
2022,10,19,09,38,1769.00
2022,10,19,09,39,1768.80
2022,10,19,09,40,1768.00
2022,10,19,09,41,1768.00
2022,10,19,09,42,1768.00
2022,10,19,09,43,1768.00
2022,10,19,09,44,1768.00
2022,10,19,09,45,1768.00
2022,10,19,09,46,1768.00
2022,10,19,09,47,1768.00
2022,10,19,09,48,1768.00
2022,10,19,09,49,1768.00
2022,10,19,09,50,1768.00
2022,10,19,09,51,1768.00
2022,10,19,09,52,1768.00
2022,10,19,09,53,1768.00
2022,10,19,09,54,1768.00
2022,10,19,09,55,1768.00
2022,10,19,09,56,1768.00
2022,10,19,09,57,1768.00
2022,10,19,09,58,1768.00
2022,10,19,09,59,1768.00
2022,10,19,10,00,1768.00
2022,10,19,10,01,1768.00
2022,10,19,10,02,1768.00
2022,10,19,10,03,1768.00
2022,10,19,10,04,1768.00
2022,10,19,10,05,1768.00
2022,10,19,10,06,1768.00
2022,10,19,10,07,1768.00
2022,10,19,10,08,1768.00
2022,10,19,10,09,1768.00
2022,10,19,10,10,1768.00
2022,10,19,10,11,1768.00
2022,10,19,10,12,1768.00
2022,10,19,10,13,1768.00
2022,10,19,10,14,1768.00
2022,10,19,10,15,1768.00
2022,10,19,10,16,1768.00
2022,10,19,10,17,1768.00
2022,10,19,10,18,1768.00
2022,10,19,10,19,1768.00
2022,10,19,10,20,1768.00
2022,10,19,10,21,1768.00
2022,10,19,10,22,1768.00
2022,10,19,10,23,1768.00
2022,10,19,10,24,1768.00
2022,10,19,10,25,1768.00
2022,10,19,10,26,1768.00
2022,10,19,10,27,1768.00
2022,10,19,10,28,1768.00
2022,10,19,10,29,1768.00
2022,10,19,10,30,1768.00
2022,10,19,10,31,1768.00
2022,10,19,10,32,1768.00
2022,10,19,10,33,1768.00
2022,10,19,10,34,1768.00
2022,10,19,10,35,1768.00
2022,10,19,10,36,1768.00
2022,10,19,10,37,1768.00
2022,10,19,10,38,1768.00
2022,10,19,10,39,1768.00
2022,10,19,10,40,1768.00
2022,10,19,10,41,1768.00
2022,10,19,10,42,1768.00
2022,10,19,10,43,1768.00
2022,10,19,10,44,1768.00
2022,10,19,10,45,1768.00
2022,10,19,10,46,1768.00
2022,10,19,10,47,1768.00
2022,10,19,10,48,1768.00
2022,10,19,10,49,1768.00
2022,10,19,10,50,1768.00
2022,10,19,10,51,1768.00
2022,10,19,10,52,1768.00
2022,10,19,10,53,1768.00
2022,10,19,10,54,1768.00
2022,10,19,10,55,1768.00
2022,10,19,10,56,1768.00
2022,10,19,10,57,1768.00
2022,10,19,10,58,1768.00
2022,10,19,10,59,1768.00
2022,10,19,11,00,1768.00
2022,10,19,11,01,1768.00
2022,10,19,11,02,1768.00
2022,10,19,11,03,1768.00
2022,10,19,11,04,1768.00
2022,10,19,11,05,1768.00
2022,10,19,11,06,1767.90
2022,10,19,11,07,1767.00
2022,10,19,11,08,1767.00
2022,10,19,11,09,1767.00
2022,10,19,11,10,1767.00
2022,10,19,11,11,1767.00
2022,10,19,11,12,1767.00
2022,10,19,11,13,1767.10
2022,10,19,11,14,1767.80
2022,10,19,11,15,1767.30
2022,10,19,11,16,1768.00
2022,10,19,11,17,1768.00
2022,10,19,11,18,1768.00
2022,10,19,11,19,1768.00
2022,10,19,11,20,1768.00
2022,10,19,11,21,1768.00
2022,10,19,11,22,1768.00
2022,10,19,11,23,1768.00
2022,10,19,11,24,1768.00
2022,10,19,11,25,1768.00
2022,10,19,11,26,1768.00
2022,10,19,11,27,1768.00
2022,10,19,11,28,1768.00
2022,10,19,11,29,1768.00
2022,10,19,11,30,1768.00
2022,10,19,11,31,1767.40
2022,10,19,11,32,1767.00
2022,10,19,11,33,1767.00
2022,10,19,11,34,1767.00
2022,10,19,11,35,1767.00
2022,10,19,11,36,1767.00
2022,10,19,11,37,1767.40
2022,10,19,11,38,1768.00
2022,10,19,11,39,1768.00
2022,10,19,11,40,1768.00
2022,10,19,11,41,1767.90
2022,10,19,11,42,1767.20
2022,10,19,11,43,1767.60
2022,10,19,11,44,1767.00
2022,10,19,11,45,1767.00
2022,10,19,11,46,1767.00
2022,10,19,11,47,1767.00
2022,10,19,11,48,1767.00
2022,10,19,11,49,1767.00
2022,10,19,11,50,1767.00
2022,10,19,11,51,1767.00
2022,10,19,11,52,1767.00
2022,10,19,11,53,1767.00
2022,10,19,11,54,1767.00
2022,10,19,11,55,1767.00
2022,10,19,11,56,1767.00
2022,10,19,11,57,1767.00
2022,10,19,11,58,1767.00
2022,10,19,11,59,1767.00
2022,10,19,12,00,1767.00
2022,10,19,12,01,1767.00
2022,10,19,12,02,1767.00
2022,10,19,12,03,1767.00
2022,10,19,12,04,1767.00
2022,10,19,12,05,1767.00
2022,10,19,12,06,1767.00
2022,10,19,12,07,1767.70
2022,10,19,12,08,1768.00
2022,10,19,12,09,1767.10
2022,10,19,12,10,1768.00
2022,10,19,12,11,1768.00
2022,10,19,12,12,1768.00
2022,10,19,12,13,1768.00
2022,10,19,12,14,1768.00
2022,10,19,12,15,1768.00
2022,10,19,12,16,1767.10
2022,10,19,12,17,1768.00
2022,10,19,12,18,1768.00
2022,10,19,12,19,1768.00
2022,10,19,12,20,1767.40
2022,10,19,12,21,1767.00
2022,10,19,12,22,1767.00
2022,10,19,12,23,1767.00
2022,10,19,12,24,1767.00
2022,10,19,12,25,1767.00
2022,10,19,12,26,1767.00
2022,10,19,12,27,1767.60
2022,10,19,12,28,1767.30
2022,10,19,12,29,1767.00
2022,10,19,12,30,1767.00
2022,10,19,12,31,1767.00
2022,10,19,12,32,1767.00
2022,10,19,12,33,1767.00
2022,10,19,12,34,1767.00
2022,10,19,12,35,1767.00
2022,10,19,12,36,1767.00
2022,10,19,12,37,1767.00
2022,10,19,12,38,1767.00
2022,10,19,12,39,1767.00
2022,10,19,12,40,1767.00
2022,10,19,12,41,1767.00
2022,10,19,12,42,1767.00
2022,10,19,12,43,1767.00
2022,10,19,12,44,1767.00
2022,10,19,12,45,1767.00
2022,10,19,12,46,1767.00
2022,10,19,12,47,1767.00
2022,10,19,12,48,1767.60
2022,10,19,12,49,1768.00
2022,10,19,12,50,1768.00
2022,10,19,12,51,1768.00
2022,10,19,12,52,1768.00
2022,10,19,12,53,1768.00
2022,10,19,12,54,1768.00
2022,10,19,12,55,1768.00
2022,10,19,12,56,1768.00
2022,10,19,12,57,1767.20
2022,10,19,12,58,1767.10
2022,10,19,12,59,1767.80
2022,10,19,13,00,1767.00
2022,10,19,13,01,1767.00
2022,10,19,13,02,1767.60
2022,10,19,13,03,1767.30
2022,10,19,13,04,1767.00
2022,10,19,13,05,1768.00
2022,10,19,13,06,1767.80
2022,10,19,13,07,1767.00
2022,10,19,13,08,1767.00
2022,10,19,13,09,1767.00
2022,10,19,13,10,1767.00
2022,10,19,13,11,1767.00
2022,10,19,13,12,1767.00
2022,10,19,13,13,1767.00
2022,10,19,13,14,1767.00
2022,10,19,13,15,1767.00
2022,10,19,13,16,1767.00
2022,10,19,13,17,1767.00
2022,10,19,13,18,1767.00
2022,10,19,13,19,1767.00
2022,10,19,13,20,1767.00
2022,10,19,13,21,1767.00
2022,10,19,13,22,1767.00
2022,10,19,13,23,1767.00
2022,10,19,13,24,1767.00
2022,10,19,13,25,1767.00
2022,10,19,13,26,1767.00
2022,10,19,13,27,1767.00
2022,10,19,13,28,1767.00
2022,10,19,13,29,1767.00
2022,10,19,13,30,1767.00
2022,10,19,13,31,1767.70
2022,10,19,13,32,1768.00
2022,10,19,13,33,1768.00
2022,10,19,13,34,1768.00
2022,10,19,13,35,1768.00
2022,10,19,13,36,1768.00
2022,10,19,13,37,1768.00
2022,10,19,13,38,1768.00
2022,10,19,13,39,1768.00
2022,10,19,13,40,1768.00
2022,10,19,13,41,1768.00
2022,10,19,13,42,1768.00
2022,10,19,13,43,1768.00
2022,10,19,13,44,1768.00
2022,10,19,13,45,1768.00
2022,10,19,13,46,1768.00
2022,10,19,13,47,1768.00
2022,10,19,13,48,1768.00
2022,10,19,13,49,1768.00
2022,10,19,13,50,1768.00
2022,10,19,13,51,1768.00
2022,10,19,13,52,1768.00
2022,10,19,13,53,1768.00
2022,10,19,13,54,1768.00
2022,10,19,13,55,1768.00
2022,10,19,13,56,1767.60
2022,10,19,13,57,1767.50
2022,10,19,13,58,1768.00
2022,10,19,13,59,1768.00
2022,10,19,14,00,1768.00
2022,10,19,14,01,1768.00
2022,10,19,14,02,1768.00
2022,10,19,14,03,1768.00
2022,10,19,14,04,1768.00
2022,10,19,14,05,1768.00
2022,10,19,14,06,1768.00
2022,10,19,14,07,1768.00
2022,10,19,14,08,1635.00
2022,10,19,14,09,530.10
2022,10,19,14,10,541.00
2022,10,19,14,11,541.00
2022,10,19,14,12,541.00
2022,10,19,14,13,760.30
2022,10,19,14,14,847.20
2022,10,19,14,15,849.00
2022,10,19,14,16,849.00
2022,10,19,14,17,849.00
2022,10,19,14,18,849.00
2022,10,19,14,19,648.60
2022,10,19,14,20,517.50
2022,10,19,14,21,519.50
2022,10,19,14,22,519.00
2022,10,19,14,23,519.00
2022,10,19,14,24,518.30
2022,10,19,14,25,517.00
2022,10,19,14,26,512.80
2022,10,19,14,27,511.40
2022,10,19,14,28,512.80
2022,10,19,14,29,510.10
2022,10,19,14,30,507.60
2022,10,19,14,31,496.70
2022,10,19,14,32,490.70
2022,10,19,14,33,488.00
2022,10,19,14,34,484.40
2022,10,19,14,35,486.10
2022,10,19,14,36,469.40
2022,10,19,14,37,477.10
2022,10,19,14,38,475.50
2022,10,19,14,39,478.10
2022,10,19,14,40,477.20
2022,10,19,14,41,473.10
2022,10,19,14,42,444.70
2022,10,19,14,43,439.00
2022,10,19,14,44,439.00
2022,10,19,14,45,439.00
2022,10,19,14,46,453.40
2022,10,19,14,47,469.00
2022,10,19,14,48,468.30
2022,10,19,14,49,468.90
2022,10,19,14,50,465.70
2022,10,19,14,51,461.30
2022,10,19,14,52,459.70
2022,10,19,14,53,461.00
2022,10,19,14,54,458.60
2022,10,19,14,55,517.00
2022,10,19,14,56,471.10
2022,10,19,14,57,446.50
2022,10,19,14,58,446.40
2022,10,19,14,59,448.00
2022,10,19,15,00,448.00
2022,10,19,15,01,446.20
2022,10,19,15,02,445.00
2022,10,19,15,03,443.40
2022,10,19,15,04,441.10
2022,10,19,15,05,440.60
2022,10,19,15,06,440.30
2022,10,19,15,07,438.80
2022,10,19,15,08,434.00
2022,10,19,15,09,432.60
2022,10,19,15,10,432.00
2022,10,19,15,11,429.10
2022,10,19,15,12,428.10
2022,10,19,15,13,424.00
2022,10,19,15,14,422.00
2022,10,19,15,15,419.00
2022,10,19,15,16,417.00
2022,10,19,15,17,417.90
2022,10,19,15,18,414.70
2022,10,19,15,19,410.80
2022,10,19,15,20,410.00
2022,10,19,15,21,409.10
2022,10,19,15,22,406.90
2022,10,19,15,23,404.60
2022,10,19,15,24,403.20
2022,10,19,15,25,403.00
2022,10,19,15,26,402.10
2022,10,19,15,27,398.00
2022,10,19,15,28,395.10
2022,10,19,15,29,391.70
2022,10,19,15,30,390.00
2022,10,19,15,31,385.90
2022,10,19,15,32,389.50
2022,10,19,15,33,386.60
2022,10,19,15,34,383.60
2022,10,19,15,35,382.90
2022,10,19,15,36,382.00
2022,10,19,15,37,382.10
2022,10,19,15,38,378.70
2022,10,19,15,39,379.70
2022,10,19,15,40,377.10
2022,10,19,15,41,372.30
2022,10,19,15,42,369.90
2022,10,19,15,43,371.00
2022,10,19,15,44,369.60
2022,10,19,15,45,370.60
2022,10,19,15,46,373.80
2022,10,19,15,47,372.10
2022,10,19,15,48,369.70
2022,10,19,15,49,370.10
2022,10,19,15,50,373.10
2022,10,19,15,51,368.90
2022,10,19,15,52,366.00
2022,10,19,15,53,361.90
2022,10,19,15,54,358.30
2022,10,19,15,55,356.30
2022,10,19,15,56,358.10
2022,10,19,15,57,353.00
2022,10,19,15,58,346.50
2022,10,19,15,59,345.80
2022,10,19,16,00,351.70
2022,10,19,16,01,339.40
2022,10,19,16,02,340.30
2022,10,19,16,03,339.00
2022,10,19,16,04,337.20
2022,10,19,16,05,334.60
2022,10,19,16,06,338.30
2022,10,19,16,07,319.10
2022,10,19,16,08,265.90
2022,10,19,16,09,235.30
2022,10,19,16,10,221.50
2022,10,19,16,11,226.00
2022,10,19,16,12,251.90
2022,10,19,16,13,223.80
2022,10,19,16,14,199.70
2022,10,19,16,15,199.20
2022,10,19,16,16,197.30
2022,10,19,16,17,199.00
2022,10,19,16,18,202.30
2022,10,19,16,19,214.00
2022,10,19,16,20,246.40
2022,10,19,16,21,259.10
2022,10,19,16,22,245.20
2022,10,19,16,23,199.60
2022,10,19,16,24,184.30
2022,10,19,16,25,205.80
2022,10,19,16,26,219.00
2022,10,19,16,27,246.40
2022,10,19,16,28,261.60
2022,10,19,16,29,258.90
2022,10,19,16,30,244.10
2022,10,19,16,31,245.70
2022,10,19,16,32,236.00
2022,10,19,16,33,237.30
2022,10,19,16,34,249.80
2022,10,19,16,35,232.90
2022,10,19,16,36,215.60
2022,10,19,16,37,190.20
2022,10,19,16,38,155.70
2022,10,19,16,39,148.00
2022,10,19,16,40,147.40
2022,10,19,16,41,143.10
2022,10,19,16,42,144.40
2022,10,19,16,43,150.20
2022,10,19,16,44,154.80